Probability
0 0 0 0 0 1 2 1 0 0 0 0 0 0 0 0 0 0 1 1 3 3 3 2 2 1 1 1 1 0 1 2 2 1 1 2 2 1 1 0 0 0 0
0 0 0 0 0 1 1 1 0 0 0 0 0 0 0 0 0 1 1 2 3 4 2 1 1 0 0 0 0 0 1 2 3 1 1 2 2 1 0 0 0 0 0
0 0 0 0 0 1 1 0 0 0 0 0 0 0 0 0 0 1 2 3 4 4 2 0 0 0 0 0 0 0 1 2 3 2 1 2 3 1 0 0 0 0 0
0 0 0 0 0 0 0 0 0 0 0 0 0 0 0 0 0 1 2 3 4 4 1 0 0 0 0 0 0 0 1 3 4 3 1 2 2 1 0 0 0 0 0
0 0 0 0 0 0 0 0 0 0 0 0 0 0 0 0 0 0 1 1 2 3 1 0 0 0 0 0 0 0 1 2 4 3 1 1 1 1 1 0 0 0 0
0 0 0 0 0 0 0 0 0 0 0 0 0 0 0 0 0 0 0 0 1 2 2 1 0 0 0 0 0 0 0 1 3 3 2 1 0 0 1 1 0 0 0
0 0 0 0 0 0 0 0 0 0 0 0 0 0 0 0 0 0 0 0 1 2 2 1 0 0 0 0 0 0 0 1 2 3 3 2 1 0 1 1 0 0 0
0 0 0 0 0 0 0 0 0 0 0 0 0 0 0 0 0 0 0 0 1 2 2 1 0 0 0 0 0 0 0 1 2 3 3 2 1 0 0 0 0 0 0
0 0 0 0 0 0 0 0 0 0 0 0 0 0 0 0 0 0 0 0 0 1 2 1 0 0 0 0 0 0 0 1 2 3 3 2 1 0 0 0 0 0 0
0 0 0 0 0 0 0 0 0 0 0 0 0 0 0 0 0 0 0 0 0 1 1 1 0 0 0 0 0 0 0 1 2 3 2 1 0 0 0 0 0 0 0
0 0 0 0 0 0 0 0 0 0 0 0 0 0 0 0 0 0 0 0 0 0 0 0 0 0 0 0 0 0 0 1 2 3 1 0 0 0 0 0 0 0 0
0 0 0 0 0 0 0 0 0 0 0 0 0 0 0 0 0 0 0 0 0 0 0 0 0 0 0 0 0 0 0 1 2 2 1 0 0 0 0 0 0 0 0
0 0 0 0 0 0 0 0 0 0 0 0 0 0 0 0 0 0 0 0 0 0 0 0 0 0 0 0 0 0 0 1 1 1 0 0 0 0 0 0 0 0 0
0 0 0 0 0 0 0 0 0 0 0 0 0 0 0 0 0 0 0 0 0 0 0 0 0 0 0 0 0 0 0 0 0 0 0 0 0 0 0 0 0 0 0
0 0 0 0 0 0 0 0 0 0 0 0 0 0 0 0 0 0 0 0 0 0 0 0 0 0 0 0 0 0 0 0 0 0 0 0 0 0 0 0 0 0 0
0 0 0 0 0 0 0 0 0 0 0 0 0 0 0 0 0 0 0 0 0 0 0 0 0 0 0 0 0 0 0 0 0 0 0 0 0 0 0 0 0 0 0
0 0 0 0 0 0 0 0 0 0 0 0 0 0 0 0 0 0 0 0 0 0 0 0 0 0 0 0 0 0 0 0 0 0 0 0 0 0 0 0 0 0 0
0 0 0 0 0 0 0 0 0 0 0 0 0 0 0 0 0 0 0 0 0 0 0 0 0 0 0 0 0 0 0 0 0 0 0 0 0 0 0 0 0 0 0
0 0 0 0 0 0 0 0 0 0 0 0 0 0 0 0 0 0 0 0 0 0 0 0 0 0 0 0 0 0 0 0 0 0 0 0 0 0 0 0 0 0 0
0 0 0 0 0 0 0 0 0 0 0 0 0 0 0 0 0 0 0 0 0 0 0 0 0 0 0 0 0 0 0 0 0 0 0 0 0 0 0 0 0 0 0
0 0 0 0 0 0 0 0 0 0 0 0 0 0 0 0 0 0 0 0 0 0 0 0 0 0 0 0 0 0 0 0 0 0 0 0 0 0 0 0 0 0 0
0 0 0 0 0 0 0 0 0 0 0 0 0 0 0 0 0 0 0 0 0 0 0 0 0 0 0 0 0 0 0 0 0 0 0 0 0 0 0 0 0 0 0
0 0 0 0 0 0 0 0 0 0 0 0 0 0 0 0 0 0 0 0 0 0 0 0 0 0 0 0 0 0 0 0 0 0 0 0 0 0 0 0 0 0 0
0 0 0 0 0 0 0 0 0 0 0 0 0 0 0 0 0 0 0 0 0 0 0 0 0 0 0 0 0 0 0 0 0 0 0 0 0 0 0 0 0 0 0
0 0 0 0 0 0 0 0 0 0 0 0 0 0 0 0 0 0 0 0 0 0 0 0 0 0 0 0 0 0 0 0 0 0 0 0 0 0 0 0 0 0 0
0 0 0 0 0 0 0 0 0 0 0 0 0 0 0 0 0 0 0 0 0 0 0 0 0 0 0 0 0 0 0 0 0 0 0 0 0 0 0 0 0 0 0
Wind_Speed
6 6 6 7 7 8 8 9 9 8 7 5 6 6 6 6 6 6 7 8 7 7 7 5 6 6 6 7 7 6 8 7 6 5 4 4 6 8 8 8 8 10 10
6 6 7 7 8 8 8 9 10 9 8 7 7 6 7 7 7 7 8 9 9 8 7 7 7 7 7 8 8 7 6 6 7 6 6 4 5 6 8 8 9 10 9
7 8 8 9 9 9 9 8 10 10 9 9 7 7 7 7 7 8 7 9 10 10 9 9 8 9 8 8 9 10 10 8 8 8 7 6 6 5 6 9 9 10 9
8 9 9 10 10 10 10 10 10 10 10 9 8 10 9 10 10 8 8 9 10 11 10 10 10 9 9 10 10 10 9 10 9 9 8 7 4 5 5 6 9 10 11
8 9 9 10 11 11 10 10 11 11 11 10 10 11 11 10 9 9 11 11 10 11 11 11 10 10 9 11 11 10 11 10 10 9 8 8 6 7 6 7 8 8 8
9 9 10 11 11 11 10 10 12 12 11 11 11 12 13 13 13 12 11 10 9 9 12 12 11 11 10 11 11 11 13 11 12 9 9 8 7 8 8 8 10 8 7
10 11 12 12 12 12 11 11 12 13 12 12 11 12 13 14 15 13 11 11 9 9 11 11 11 11 11 11 11 12 12 13 13 12 10 9 8 7 7 7 8 7 5
10 11 13 13 13 13 12 12 13 13 13 12 12 12 12 11 10 12 11 12 10 10 11 12 12 12 12 12 12 11 12 12 13 13 12 9 8 8 7 7 7 7 5
11 12 13 13 13 13 13 13 13 13 13 13 12 12 12 12 12 12 11 10 10 10 12 12 12 12 12 13 12 11 13 12 12 12 13 10 8 8 7 6 8 8 7
12 13 12 13 13 12 12 13 12 13 13 12 11 10 11 12 11 10 11 12 11 11 11 12 13 13 13 13 12 11 12 13 12 10 12 11 8 8 7 7 7 7 7
13 13 13 13 13 12 12 12 11 12 12 12 12 12 11 11 10 9 10 10 10 11 11 11 12 13 13 12 12 12 13 14 13 12 13 13 11 8 7 7 7 7 6
13 13 14 13 12 12 12 12 12 12 12 11 11 11 11 11 10 9 10 10 11 10 11 11 11 12 12 12 13 14 13 14 14 13 13 13 10 11 9 8 9 7 6
14 13 13 13 13 12 12 12 12 12 12 11 12 12 11 11 10 9 9 9 10 10 10 10 11 11 12 12 13 13 13 14 13 13 14 14 13 12 10 10 9 7 6
14 13 14 13 13 12 12 12 13 12 12 11 12 12 11 11 9 8 8 9 9 9 10 10 10 10 11 12 12 12 12 12 12 13 13 14 14 13 13 10 10 8 8
14 14 14 14 13 13 13 13 13 12 12 12 12 12 11 10 9 8 8 8 9 9 9 8 8 8 9 9 10 10 11 11 11 12 13 14 14 14 12 10 11 10 8
15 15 15 14 14 14 13 13 13 12 12 12 12 11 11 10 9 8 8 8 8 8 7 7 7 8 7 9 11 10 9 10 11 11 12 12 13 13 14 14 14 13 12
16 15 15 14 14 14 14 14 13 12 12 12 12 11 10 9 9 8 8 8 8 7 7 6 7 7 6 9 11 10 8 9 9 10 10 9 10 12 11 12 12 11 12
15 14 14 14 14 13 14 13 12 11 11 12 11 10 9 9 9 8 7 8 7 6 6 6 6 6 6 8 9 8 8 8 9 10 10 10 11 10 11 11 10 10 9
14 14 14 14 13 13 12 12 12 11 11 11 11 9 8 8 8 9 8 7 6 5 5 5 6 5 5 6 6 6 5 6 7 8 9 10 11 12 13 12 11 9 7
13 13 13 13 13 12 11 12 12 12 12 11 11 9 8 8 9 9 9 7 6 5 5 6 5 5 4 5 6 5 4 5 5 6 8 11 12 14 14 13 12 11 9
14 13 13 12 12 12 11 11 11 12 12 11 10 9 8 8 9 8 8 7 6 5 5 6 5 4 3 4 4 4 3 4 5 5 5 7 13 14 14 12 10 12 11
13 13 12 12 12 11 10 11 12 11 11 10 10 9 9 8 7 8 7 6 5 4 4 4 4 2 2 2 2 3 3 3 5 5 5 7 12 12 12 10 13 16 13
13 12 12 13 12 11 10 11 12 10 10 10 9 8 8 7 7 7 6 5 4 3 3 3 3 2 2 1 1 1 2 2 3 4 7 9 11 12 11 14 17 14 9
12 11 11 11 12 11 11 11 11 9 9 9 9 8 8 7 7 5 5 4 4 3 3 3 2 3 2 2 1 0 0 2 3 5 7 9 11 9 11 12 11 8 8
11 10 10 11 12 12 11 11 10 9 9 9 8 8 7 7 6 6 5 5 5 4 5 4 3 3 3 3 4 3 2 2 3 4 5 5 7 7 7 7 7 7 7
10 10 11 12 12 11 11 10 9 8 7 7 7 6 6 5 5 5 5 6 6 8 8 7 6 4 4 5 5 3 1 4 6 4 6 6 7 7 8 8 7 7 7
Wind_Direction
303 308 306 308 304 302 301 302 301 300 301 294 291 290 287 282 276 269 260 256 252 248 245 241 232 231 228 221 218 220 214 211 200 202 204 211 211 213 206 200 197 198 196
309 312 311 312 310 304 301 298 298 298 296 287 287 280 279 278 273 267 260 256 250 244 242 241 234 228 230 225 219 215 218 214 201 201 192 197 205 213 211 204 202 199 195
308 314 315 314 314 313 310 302 299 295 293 289 284 278 273 271 267 263 258 253 251 245 242 238 237 232 228 224 219 213 214 212 212 210 204 197 203 181 200 207 204 199 197
305 310 313 316 315 312 309 304 302 295 292 288 278 275 271 273 269 267 260 254 250 248 242 238 233 232 232 226 220 218 216 211 211 214 224 228 205 188 182 198 204 202 203
304 307 310 313 313 311 307 306 305 297 293 288 280 272 268 273 272 267 260 254 248 245 240 236 233 230 233 231 224 219 218 214 214 214 214 218 217 212 196 193 193 199 204
306 307 312 312 311 311 309 308 306 302 298 291 283 275 272 275 271 264 261 256 249 243 238 237 234 231 231 232 227 220 218 219 220 219 217 213 207 204 203 198 193 196 197
309 311 313 313 313 311 310 309 307 304 302 297 289 284 277 273 267 261 257 255 249 245 238 235 234 232 229 229 229 222 220 220 220 219 219 221 219 214 208 198 193 194 190
309 311 311 311 309 308 308 309 307 305 303 300 295 289 282 275 267 258 256 253 248 245 245 238 235 233 230 229 227 222 221 219 221 220 220 223 218 215 212 201 191 190 197
310 311 309 308 308 308 308 305 304 304 303 300 296 291 287 281 273 262 258 257 251 247 244 242 237 233 231 228 227 221 219 218 219 218 219 220 217 212 215 207 200 194 197
309 310 308 307 305 305 305 303 300 301 301 300 296 292 290 285 277 269 261 260 257 251 246 246 238 233 230 228 228 223 218 217 218 215 216 215 214 209 208 206 209 209 202
310 309 308 307 305 306 305 304 304 304 303 302 299 296 294 289 276 271 267 266 263 257 249 246 244 234 228 226 228 223 217 216 216 213 214 213 208 205 205 204 205 207 198
309 308 309 309 308 307 306 306 306 305 306 305 301 298 293 292 280 275 273 269 265 258 252 247 246 238 228 226 227 221 216 216 213 211 211 210 204 203 203 201 201 200 195
308 308 308 309 308 308 308 307 305 305 306 304 301 299 297 295 286 281 279 276 269 262 256 249 246 239 230 227 228 220 215 215 212 210 210 207 202 201 201 198 198 193 186
307 307 309 308 307 307 308 308 306 306 305 303 301 299 299 298 289 284 281 281 277 272 264 253 247 240 234 228 226 220 215 214 212 212 210 206 204 201 198 196 193 188 180
308 310 310 309 308 308 309 309 306 305 304 304 302 299 299 299 288 281 280 280 280 276 270 258 250 243 233 223 221 216 213 212 211 212 208 207 203 202 199 194 188 184 180
309 312 312 310 308 309 310 309 305 305 305 304 303 302 302 303 299 284 283 283 284 279 276 264 260 248 235 226 223 221 212 210 211 209 203 200 197 195 194 195 192 190 186
310 311 310 308 306 307 307 305 305 304 303 303 304 303 302 302 303 296 282 281 283 280 274 270 268 254 244 224 216 221 215 210 212 206 196 195 193 191 188 182 181 192 193
307 309 309 307 306 305 304 303 305 303 303 304 305 306 304 302 302 302 292 285 282 274 275 275 271 260 243 221 213 216 216 211 212 202 194 191 190 189 181 177 182 189 190
306 307 307 305 303 302 304 304 304 303 304 305 304 303 302 301 299 299 295 294 288 280 280 275 271 262 245 222 216 224 210 208 210 199 192 186 184 176 171 172 174 172 171
308 309 308 306 303 304 306 302 302 303 304 306 306 303 301 297 294 295 295 293 287 276 279 278 276 262 245 228 221 235 213 208 204 189 183 179 178 174 173 174 170 169 167
309 309 307 304 304 307 305 300 299 299 303 304 305 301 298 295 295 296 293 291 288 281 285 286 281 266 243 230 225 238 222 210 195 179 177 176 172 175 177 175 173 167 158
310 311 308 306 307 307 303 300 300 303 305 305 305 302 301 300 300 301 301 300 298 289 285 285 292 279 249 241 237 245 248 232 194 184 179 171 167 169 171 169 156 149 146
308 309 307 306 307 307 304 300 302 306 307 307 306 307 308 308 307 304 302 303 299 290 287 289 289 298 296 282 236 241 259 220 194 173 166 165 162 159 159 152 147 147 148
307 309 308 306 307 309 304 301 303 305 306 307 307 309 309 309 310 308 302 302 301 300 299 290 290 296 296 289 281 254 93 129 138 142 140 147 150 147 142 145 148 151 152
306 307 304 305 305 306 305 305 305 305 306 305 306 308 307 305 307 307 304 299 292 286 291 290 280 275 282 283 281 279 238 179 153 146 144 147 148 149 148 147 148 146 144
305 306 305 304 306 307 307 307 307 306 305 304 307 308 307 305 305 308 315 314 293 303 297 293 290 289 281 290 297 285 231 174 159 148 151 154 154 152 152 152 148 145 146